sat.trackr.live / text

‹ back to catalog

STARLINK-34998

NORAD 65474 · 2025-195S

PAYLOAD ACTIVE UNKNOWN

§ Identity

Operator
Country
US
Launch date
2025-09-03
Launch site
AFETR
Launch vehicle
Mass (kg)
RCS (m²)

Purposes: comms

External: N2YO · Heavens-Above · Gunter

§ Orbital elements

Epoch: 2026-09-20T00:51:59.114304Z

Period
94.01 min
Inclination
53.1590°
Eccentricity
0.0000931
Mean motion
15.31714211 rev/d
Perigee alt
470.1 km
Apogee alt
471.3 km
Semi-major
6,848.8 km
B*
3.9464e-4
RAAN
75.1300°
Arg perigee
82.0404°
Mean anomaly
278.0703°
Rev number
5,973

§ Raw data

STARLINK-349981 65474U 25195S   26263.03610086  .00011906  00000+0  39464-3 0  99962 65474  53.1590  75.1300 0000931  82.0404 278.0703 15.31714211 59735

JSON: /api/v1/satellites/65474 · /tle

For live sub-satellite position, see the globe view (requires WebGL).

§ Visibility from observer

Set your observer location to see the next 7 days of passes ≥ 10°. The values pass through the URL so the page stays shareable.

No JS? Fill the form by hand. The geolocation button needs JavaScript.